CW0133 Weather Reports


Display with metric or nautical units.
time (UTC)temp
F
wind
direction
speed
MPH
gust
MPH
rain 1hr
in
rain 24hr
in
rain mn
in
humidity
%
barometer
mb
20260507090503 62 338 6.0 12.0 0.00 0.00 0.00 82 1017.0
20260507090024 62 338 5.0 10.0 0.00 0.00 0.00 82 1016.8
20260507085503 62 345 5.0 10.0 0.00 0.00 0.00 82 1016.8
20260507085024 62 348 5.0 10.0 0.00 0.00 0.00 82 1016.8
20260507084503 62 351 5.0 11.0 0.00 0.00 0.00 82 1016.8
20260507084024 62 357 5.0 11.0 0.00 0.00 0.00 82 1016.7
20260507083503 62 2 5.0 10.0 0.00 0.00 0.00 81 1016.5
20260507083004 62 356 4.0 12.0 0.00 0.00 0.00 81 1016.7
20260507082504 62 345 4.0 12.0 0.00 0.00 0.00 81 1016.9
20260507082004 62 3 2.0 10.0 0.00 0.00 0.00 81 1016.9
20260507081504 62 50 1.0 7.0 0.00 0.00 0.00 81 1017.0
20260507081004 62 52 1.0 7.0 0.00 0.00 0.00 81 1016.7
20260507080504 62 20 2.0 7.0 0.00 0.00 0.00 81 1016.5
20260507080004 62 6 2.0 10.0 0.00 0.00 0.00 81 1016.4
20260507075504 62 10 4.0 10.0 0.00 0.00 0.00 81 1016.5
20260507075004 62 20 5.0 11.0 0.00 0.00 0.00 81 1016.3
20260507074504 62 21 6.0 14.0 0.00 0.00 0.00 80 1016.6
20260507074025 62 19 6.0 14.0 0.00 0.00 0.00 80 1016.4
20260507073504 62 23 6.0 13.0 0.00 0.00 0.00 80 1016.2
20260507073004 62 18 6.0 13.0 0.00 0.00 0.00 80 1016.4
20260507072504 62 6 5.0 11.0 0.00 0.00 0.00 80 1016.4
20260507072025 62 1 6.0 13.0 0.00 0.00 0.00 80 1016.5
20260507071504 62 359 6.0 13.0 0.00 0.00 0.00 80 1016.6
20260507071004 62 5 5.0 8.0 0.00 0.00 0.00 80 1016.3
20260507070504 62 14 4.0 8.0 0.00 0.00 0.00 80 1016.3
20260507070008 63 13 4.0 7.0 0.00 0.00 0.00 80 1016.3
20260507065525 63 6 4.0 8.0 0.00 0.00 0.00 80 1016.4
20260507065004 63 360 4.0 8.0 0.00 0.00 0.00 80 1016.7
20260507064525 63 355 2.0 6.0 0.00 0.00 0.00 80 1016.4
20260507064004 63 355 2.0 7.0 0.00 0.00 0.00 80 1016.6
20260507063504 63 359 4.0 10.0 0.00 0.00 0.00 80 1016.8
20260507063004 63 358 5.0 11.0 0.00 0.00 0.00 80 1016.6
20260507062504 63 5 6.0 13.0 0.00 0.00 0.00 80 1016.4
20260507062004 63 15 6.0 13.0 0.00 0.00 0.00 80 1016.1
20260507061504 63 6 6.0 13.0 0.00 0.00 0.00 80 1015.4
20260507061004 63 358 6.0 13.0 0.00 0.00 0.00 80 1015.9
20260507060503 63 1 6.0 12.0 0.00 0.00 0.00 80 1016.3
20260507060004 63 357 5.0 11.0 0.00 0.00 0.00 80 1016.2
20260507055524 63 358 6.0 12.0 0.00 0.00 0.00 80 1016.2
20260507055004 63 3 7.0 12.0 0.00 0.00 0.00 80 1015.7
20260507054504 63 4 6.0 14.0 0.00 0.00 0.00 80 1016.1
20260507054004 63 356 6.0 14.0 0.00 0.00 0.00 81 1016.2
20260507053525 63 350 6.0 11.0 0.00 0.00 0.00 81 1016.3
20260507053004 63 355 6.0 11.0 0.00 0.00 0.00 81 1016.3
20260507052504 63 359 6.0 13.0 0.00 0.00 0.00 81 1016.1
20260507052004 63 353 5.0 13.0 0.00 0.00 0.00 81 1016.3
20260507051503 63 354 6.0 11.0 0.00 0.00 0.00 81 1016.2
20260507051004 63 2 6.0 11.0 0.00 0.00 0.00 81 1015.9
20260507050504 63 8 6.0 13.0 0.00 0.00 0.00 81 1015.9
20260507050005 63 8 6.0 13.0 0.00 0.00 0.00 81 1016.0
20260507045524 63 356 6.0 12.0 0.00 0.00 0.00 81 1016.0
20260507045004 63 350 6.0 12.0 0.00 0.00 0.00 81 1016.1
20260507044525 63 355 5.0 10.0 0.00 0.00 0.00 81 1016.1
20260507044004 63 350 5.0 10.0 0.00 0.00 0.00 81 1016.1
20260507043504 63 355 4.0 10.0 0.00 0.00 0.00 81 1015.9
20260507043004 64 356 5.0 12.0 0.00 0.00 0.00 81 1016.1
20260507042504 64 349 6.0 12.0 0.00 0.00 0.00 81 1016.1
20260507042004 64 345 6.0 12.0 0.00 0.00 0.00 81 1016.2
20260507041504 64 344 6.0 14.0 0.00 0.00 0.00 81 1016.1
20260507041004 64 347 6.0 14.0 0.00 0.00 0.00 81 1016.0
20260507040504 64 354 6.0 12.0 0.00 0.00 0.00 81 1015.7
20260507040004 64 352 7.0 14.0 0.00 0.00 0.00 81 1015.8
20260507035525 64 352 7.0 14.0 0.00 0.00 0.00 81 1015.7
20260507035003 64 355 7.0 13.0 0.00 0.00 0.00 81 1015.8
20260507034504 64 350 7.0 13.0 0.00 0.00 0.00 81 1016.1
20260507034004 64 345 7.0 13.0 0.00 0.00 0.00 81 1016.0
20260507033525 64 346 7.0 13.0 0.00 0.00 0.00 81 1015.6
20260507033025 64 348 7.0 14.0 0.00 0.00 0.00 81 1015.6
20260507032504 64 348 6.0 14.0 0.00 0.00 0.00 81 1015.7
20260507032024 64 351 7.0 17.0 0.00 0.00 0.00 81 1015.8
20260507031504 64 347 7.0 17.0 0.00 0.00 0.00 81 1015.6
20260507031004 64 339 6.0 16.0 0.00 0.00 0.00 81 1015.6
20260507030504 64 337 7.0 17.0 0.00 0.00 0.00 81 1015.7
20260507030003 64 329 6.0 17.0 0.00 0.00 0.00 81 1015.7
20260507025503 64 329 5.0 10.0 0.00 0.00 0.00 81 1015.5
20260507025025 64 341 5.0 10.0 0.00 0.00 0.00 81 1015.3
20260507024503 64 347 6.0 11.0 0.00 0.00 0.00 81 1015.2
20260507024025 64 340 6.0 13.0 0.00 0.00 0.00 81 1015.1
20260507023504 64 338 6.0 13.0 0.00 0.00 0.00 81 1015.2
20260507023004 64 345 5.0 10.0 0.00 0.00 0.00 81 1015.4
20260507022504 64 331 5.0 11.0 0.00 0.00 0.00 80 1015.3
20260507022003 64 321 5.0 11.0 0.00 0.00 0.00 80 1015.2
20260507021504 64 337 4.0 11.0 0.00 0.00 0.00 80 1015.1
20260507021025 64 350 5.0 11.0 0.00 0.00 0.00 80 1014.8
20260507020524 64 350 5.0 11.0 0.00 0.00 0.00 80 1014.4
20260507020004 64 337 5.0 11.0 0.00 0.00 0.00 80 1014.5
20260507015503 64 324 5.0 10.0 0.00 0.00 0.00 80 1014.6
20260507015004 64 327 5.0 10.0 0.00 0.00 0.00 80 1014.6
20260507014524 64 341 5.0 12.0 0.00 0.00 0.00 80 1014.6
20260507014003 64 344 6.0 17.0 0.00 0.00 0.00 80 1014.4
20260507013504 65 339 6.0 17.0 0.00 0.00 0.00 80 1014.2
20260507013003 65 333 6.0 14.0 0.00 0.00 0.00 80 1014.2
20260507012503 65 331 6.0 14.0 0.00 0.00 0.00 80 1014.0
20260507012004 65 333 5.0 14.0 0.00 0.00 0.00 79 1014.1
20260507011503 65 334 6.0 13.0 0.00 0.00 0.00 79 1014.0
20260507011003 65 335 6.0 13.0 0.00 0.00 0.00 79 1014.0
20260507010503 65 331 6.0 13.0 0.00 0.00 0.00 79 1013.9
20260507010004 65 334 7.0 14.0 0.00 0.00 0.00 79 1014.0
20260507005503 65 341 7.0 18.0 0.00 0.00 0.00 79 1013.6
20260507005004 65 336 7.0 18.0 0.00 0.00 0.00 78 1013.8
20260507004503 65 329 6.0 14.0 0.00 0.00 0.00 78 1013.5
20260507004025 65 331 6.0 13.0 0.00 0.00 0.00 78 1013.5
20260507003504 65 338 7.0 19.0 0.00 0.00 0.00 78 1013.4
20260507003003 65 343 8.0 19.0 0.00 0.00 0.00 78 1013.4
20260507002524 65 336 8.0 19.0 0.00 0.00 0.00 77 1013.4
20260507002003 66 333 8.0 18.0 0.00 0.00 0.00 77 1013.3
20260507001503 66 338 7.0 17.0 0.00 0.00 0.00 77 1013.5
20260507001003 66 341 7.0 17.0 0.00 0.00 0.00 77 1013.3
20260507000504 66 343 7.0 14.0 0.00 0.00 0.00 77 1013.1
20260507000003 66 338 6.0 14.0 0.00 0.00 0.00 77 1013.3
20260506235503 66 344 8.0 17.0 0.00 0.00 0.00 77 1013.2
20260506235003 66 345 7.0 17.0 0.00 0.00 0.00 76 1013.1
20260506234504 66 337 7.0 13.0 0.00 0.00 0.00 76 1013.1
20260506234003 66 339 8.0 16.0 0.00 0.00 0.00 76 1013.2
20260506233524 66 338 8.0 19.0 0.00 0.00 0.00 76 1013.1
20260506233025 66 336 8.0 19.0 0.00 0.00 0.00 76 1013.0
20260506232503 67 331 8.0 16.0 0.00 0.00 0.00 74 1013.0
20260506232003 67 335 7.0 17.0 0.00 0.00 0.00 74 1012.9
20260506231503 67 335 7.0 17.0 0.00 0.00 0.00 74 1012.8
20260506231004 67 327 6.0 16.0 0.00 0.00 0.00 74 1012.8
20260506230503 67 327 7.0 16.0 0.00 0.00 0.00 74 1012.9
20260506230003 68 329 8.0 16.0 0.00 0.00 0.00 73 1012.8
20260506225524 68 331 8.0 20.0 0.00 0.00 0.00 74 1012.9
20260506225004 68 329 10.0 20.0 0.00 0.00 0.00 73 1012.9
20260506224503 68 334 10.0 19.0 0.00 0.00 0.00 72 1012.8
20260506224003 68 337 11.0 18.0 0.00 0.00 0.00 71 1012.7
20260506223525 69 335 11.0 22.0 0.00 0.00 0.00 70 1012.8
20260506223003 70 338 8.0 22.0 0.00 0.00 0.00 70 1012.7
20260506222503 70 341 8.0 19.0 0.00 0.00 0.00 69 1012.5
20260506222003 71 336 8.0 19.0 0.00 0.00 0.00 69 1012.4
20260506221524 71 331 8.0 16.0 0.00 0.00 0.00 69 1012.4
20260506221003 72 342 10.0 24.0 0.00 0.00 0.00 68 1012.7
20260506220503 72 343 11.0 24.0 0.00 0.00 0.00 67 1012.5
20260506220003 73 338 11.0 19.0 0.00 0.00 0.00 66 1012.6
20260506215503 74 342 11.0 19.0 0.00 0.00 0.00 65 1012.5
20260506215024 75 343 11.0 19.0 0.00 0.00 0.00 63 1012.5
20260506214504 76 337 11.0 19.0 0.00 0.00 0.00 63 1012.4
20260506214003 76 336 10.0 18.0 0.00 0.00 0.00 63 1012.3
20260506213524 77 344 10.0 19.0 0.00 0.00 0.00 63 1012.2
20260506213003 77 341 10.0 19.0 0.00 0.00 0.00 63 1012.1
20260506212503 77 327 8.0 22.0 0.00 0.00 0.00 64 1012.0
20260506212003 78 322 10.0 22.0 0.00 0.00 0.00 63 1012.0
20260506211503 78 324 11.0 22.0 0.00 0.00 0.00 64 1012.0
20260506211003 78 330 11.0 22.0 0.00 0.00 0.00 64 1012.1
20260506210503 78 336 11.0 22.0 0.00 0.00 0.00 64 1012.1
20260506210003 79 344 8.0 20.0 0.00 0.00 0.00 64 1012.0
20260506205503 79 348 7.0 17.0 0.00 0.00 0.00 65 1012.0
20260506205003 79 338 8.0 16.0 0.00 0.00 0.00 66 1012.0
20260506204503 78 335 8.0 18.0 0.00 0.00 0.00 68 1012.1
20260506204003 78 331 8.0 19.0 0.00 0.00 0.00 68 1012.3
20260506203503 78 331 8.0 19.0 0.00 0.00 0.00 68 1012.3
20260506203024 77 336 10.0 19.0 0.00 0.00 0.00 69 1012.3
20260506202003 77 333 10.0 23.0 0.00 0.00 0.00 70 1012.3
20260506201524 77 329 10.0 19.0 0.00 0.00 0.00 71 1012.3
20260506201025 77 324 8.0 16.0 0.00 0.00 0.00 71 1012.2
20260506200539 77 322 8.0 17.0 0.00 0.00 0.00 70 1012.2
20260506155503 78 84 2.0 7.0 0.00 0.00 0.00 90 1012.5
20260506155003 78 140 2.0 6.0 0.00 0.00 0.00 90 1012.6
20260506154504 77 144 2.0 5.0 0.00 0.00 0.00 90 1012.4
20260506154004 77 144 2.0 5.0 0.00 0.00 0.00 90 1012.4
20260506153504 77 147 1.0 4.0 0.00 0.00 0.00 90 1012.3
20260506153004 77 158 1.0 2.0 0.00 0.00 0.00 90 1012.1
20260506152525 77 160 1.0 2.0 0.00 0.00 0.00 89 1012.0
20260506152004 77 160 1.0 4.0 0.00 0.00 0.00 89 1011.8
20260506151504 77 160 1.0 4.0 0.00 0.00 0.00 89 1011.8
20260506151004 77 160 1.0 4.0 0.00 0.00 0.00 90 1011.5
20260506150525 77 160 2.0 4.0 0.00 0.00 0.00 90 1011.5
20260506150004 77 160 2.0 4.0 0.00 0.00 0.00 90 1011.4
20260506145504 77 160 2.0 4.0 0.00 0.00 0.00 90 1011.3
20260506145004 77 160 2.0 5.0 0.00 0.00 0.00 90 1011.2
20260506144504 77 160 2.0 5.0 0.00 0.00 0.00 90 1011.3
20260506144025 77 160 2.0 6.0 0.00 0.00 0.00 90 1011.2
20260506143504 77 160 4.0 6.0 0.00 0.00 0.00 90 1011.1
20260506143004 77 160 4.0 6.0 0.00 0.00 0.00 91 1010.9
20260506142504 76 161 2.0 6.0 0.00 0.00 0.00 91 1010.6
20260506142025 76 161 2.0 5.0 0.00 0.00 0.00 91 1010.8
20260506141503 76 161 1.0 4.0 0.00 0.00 0.00 91 1011.0
20260506141004 76 161 0.0 4.0 0.00 0.00 0.00 91 1011.2
20260506140504 76 161 1.0 4.0 0.00 0.00 0.00 91 1011.2
20260506140004 76 161 2.0 6.0 0.00 0.00 0.00 91 1011.1
20260506135504 76 161 2.0 6.0 0.00 0.00 0.00 91 1010.8
20260506135025 76 161 2.0 5.0 0.00 0.00 0.00 92 1010.4
20260506134504 76 161 1.0 4.0 0.00 0.00 0.00 92 1010.2
20260506134004 76 161 1.0 5.0 0.00 0.00 0.00 92 1010.4
20260506133504 76 161 4.0 6.0 0.00 0.00 0.00 92 1010.3
20260506133025 76 161 2.0 6.0 0.00 0.00 0.00 92 1010.2
20260506132504 76 161 2.0 6.0 0.00 0.00 0.00 92 1010.2
20260506132004 76 161 2.0 6.0 0.00 0.00 0.00 92 1010.2
20260506131504 76 161 4.0 7.0 0.00 0.00 0.00 92 1010.3
20260506131003 76 162 4.0 7.0 0.00 0.00 0.00 92 1010.1
20260506130505 76 162 2.0 6.0 0.00 0.00 0.00 92 1010.1
20260506130005 75 162 2.0 7.0 0.00 0.00 0.00 91 1010.1
20260506125503 75 162 4.0 7.0 0.00 0.00 0.00 91 1010.0
20260506125004 75 164 4.0 7.0 0.00 0.00 0.00 91 1009.9
20260506124525 75 167 2.0 6.0 0.00 0.00 0.00 91 1010.0
20260506124004 75 167 2.0 5.0 0.00 0.00 0.00 91 1010.0
20260506123504 75 167 2.0 5.0 0.00 0.00 0.00 91 1009.9
20260506123004 75 167 4.0 6.0 0.00 0.00 0.00 91 1010.0
20260506122504 75 167 2.0 6.0 0.00 0.00 0.00 91 1010.1
20260506122024 75 167 2.0 6.0 0.00 0.00 0.00 91 1010.1
20260506121524 75 170 2.0 6.0 0.00 0.00 0.00 91 1010.0
20260506121004 75 172 2.0 5.0 0.00 0.00 0.00 91 1009.9
20260506120504 75 172 1.0 4.0 0.00 0.00 0.00 90 1009.9
20260506120004 75 172 1.0 4.0 0.00 0.00 0.00 90 1009.8
20260506115525 75 172 1.0 4.0 0.00 0.00 0.00 90 1009.8
20260506115004 75 172 1.0 5.0 0.00 0.00 0.00 90 1009.7
20260506114503 75 172 1.0 5.0 0.00 0.00 0.00 90 1009.8
20260506114003 75 172 1.0 4.0 0.00 0.00 0.00 90 1009.8
20260506113503 75 172 1.0 4.0 0.00 0.00 0.00 90 1009.8
20260506113025 76 172 1.0 4.0 0.00 0.00 0.00 90 1009.8
20260506112504 76 172 1.0 2.0 0.00 0.00 0.00 90 1009.7
20260506112003 75 172 1.0 2.0 0.00 0.00 0.00 90 1009.8
20260506111524 76 172 1.0 4.0 0.00 0.00 0.00 90 1009.8
20260506111004 76 172 2.0 5.0 0.00 0.00 0.00 90 1009.7
20260506110525 76 172 2.0 6.0 0.00 0.00 0.00 90 1009.6
20260506110004 76 172 1.0 6.0 0.00 0.00 0.00 90 1009.6
20260506105504 76 172 2.0 6.0 0.00 0.00 0.00 91 1009.6
20260506105004 76 172 2.0 6.0 0.00 0.00 0.00 90 1009.5
20260506104504 76 172 2.0 7.0 0.00 0.00 0.00 91 1009.4
20260506104025 76 172 4.0 7.0 0.00 0.00 0.00 91 1009.5
20260506103525 76 172 2.0 7.0 0.00 0.00 0.00 91 1009.4
20260506103025 76 172 4.0 7.0 0.00 0.00 0.00 91 1009.2
20260506102525 76 171 4.0 8.0 0.00 0.00 0.00 90 1009.2
20260506102003 76 174 4.0 8.0 0.00 0.00 0.00 91 1009.2
20260506101503 76 179 5.0 8.0 0.00 0.00 0.00 91 1009.1
20260506101004 76 180 5.0 8.0 0.00 0.00 0.00 91 1009.0
20260506100525 76 181 5.0 8.0 0.00 0.00 0.00 91 1009.0
20260506100025 76 172 5.0 10.0 0.00 0.00 0.00 91 1009.0
20260506095503 76 160 5.0 10.0 0.00 0.00 0.00 91 1009.0
20260506095004 76 173 5.0 8.0 0.00 0.00 0.00 91 1009.0
20260506094503 76 174 5.0 8.0 0.00 0.00 0.00 91 1009.0
20260506094004 76 168 5.0 10.0 0.00 0.00 0.00 91 1008.9
20260506093503 76 173 5.0 10.0 0.00 0.00 0.00 91 1008.8
20260506093003 76 174 5.0 10.0 0.00 0.00 0.00 91 1008.8
20260506092503 76 170 5.0 10.0 0.00 0.00 0.00 91 1008.7
20260506092004 76 168 5.0 8.0 0.00 0.00 0.00 91 1008.7
20260506091524 76 168 5.0 10.0 0.00 0.00 0.00 91 1008.7
20260506091004 76 167 5.0 11.0 0.00 0.00 0.00 90 1008.7